Flag for Germany Weather past 2 weeks in Öhringen, Baden-Württemberg, Germany

Now
43 °F

Overcast.


Feels Like: 43 °F
Forecast: 49 / 52 °F
Wind: 2 mph from West

Location: Oehringen

Current Time: Mar 28, 2015 at 3:04:26 AM

Latest Report: Mar 28, 2015 at 2:00 AM


Visibility: 19 mi

Pressure: 30.26 "Hg

Humidity: 64%

Dew point: 31 °F

Location of ÖhringenLocation

Historic Weather in Öhringen — Graph

°F

Öhringen temperature yesterday

Maximum temperature yesterday: 50 °F (at 1:00 PM)
Minimum temperature yesterday: 41 °F (at 1:00 AM)
Average temperature yesterday: 45 °F

Past Weeks' High & Low Weather Summary

 TemperatureHumidityPressure
High67 °F (Mar 17, 3:00 PM)95% (Mar 24, 3:00 AM)30.32 "Hg (Mar 24, 3:00 AM)
Low30 °F (Mar 24, 6:00 AM)30% (Mar 17, 4:00 PM)29.55 "Hg (Mar 25, 4:00 PM)
Average45 °F68%30.09 "Hg
* Reported Mar 13 2:00 AM — Mar 28 2:00 AM, Öhringen, Weather by CustomWeather, © 2015

Note: Actual official high and low records may vary slightly from our data, if they occured in-between our weather recording intervals... More about our weather records

Advertising

Öhringen weather history for previous 24 hours

 ConditionsComfort  
Time TempWeatherWind HumidityBarometerVisibility
2:00 AM
Sat, Mar 28
43 °FOvercast.2 mph64%30.26 "Hg19 mi
1:00 AM43 °FOvercast.2 mph65%30.26 "Hg17 mi
12:00 AM43 °FOvercast.1 mph68%30.25 "Hg16 mi
11:00 PM
Fri, Mar 27
44 °FOvercast.2 mph62%30.25 "Hg16 mi
10:00 PM44 °FOvercast.2 mph62%30.23 "Hg17 mi
9:00 PM45 °FOvercast.2 mph58%30.22 "Hg17 mi
8:00 PM46 °FOvercast.3 mph56%30.20 "Hg19 mi
7:00 PM47 °FOvercast.3 mph53%30.18 "Hg25 mi
6:00 PM48 °FOvercast.3 mph49%30.16 "Hg31 mi
5:00 PM49 °FOvercast.7 mph50%30.13 "Hg31 mi
4:00 PM47 °FOvercast.5 mph61%30.11 "Hg18 mi
3:00 PM48 °FOvercast.7 mph55%30.11 "Hg28 mi
2:00 PM49 °FOvercast.6 mph51%30.09 "Hg28 mi
1:00 PM50 °FScattered clouds.8 mph50%30.08 "Hg19 mi
12:00 PM48 °FScattered clouds.8 mph60%30.08 "Hg17 mi
11:00 AM47 °FScattered clouds.8 mph59%30.07 "Hg10 mi
10:00 AM45 °FScattered clouds.7 mph71%30.06 "Hg9 mi
9:00 AM43 °FOvercast.6 mph80%30.05 "Hg7 mi
8:00 AM42 °FOvercast.6 mph85%30.02 "Hg5 mi
7:00 AM41 °FOvercast.6 mph89%30.00 "Hg5 mi
6:00 AM42 °FLow clouds.3 mph91%29.97 "Hg4 mi
5:00 AM42 °FLow clouds.5 mph89%29.95 "Hg4 mi
4:00 AM42 °FOvercast.7 mph88%29.93 "Hg4 mi
3:00 AM41 °FOvercast.5 mph89%29.93 "Hg5 mi
Weather by CustomWeather, © 2015

See weather overviewHow to use our weather pages